Location: The Saddle
(36.8333°N, 80.3417°W)
Time: 14:15:17
(UTC-05:00)

S-56A Canister/Altair - Pass Details

Date: 17 December 2023
Orbit: 639 x 2488 km, 38.9° (Epoch: 03 March)

Event Time Altitude Azimuth Distance (km) Brightness Sun altitude
Rises 13:58:59 0° 280° (W) 3,093 10.8 25.2°
Reaches altitude 10° 14:01:54 10° 264° (W) 2,067 10.3 25.0°
Maximum altitude 14:05:19 21° 214° (SW) 1,430 11.7 24.7°
Drops below altitude 10° 14:08:45 10° 165° (SSE) 2,055 10.5 24.3°
Sets 14:11:39 0° 148° (SSE) 3,071 11.0 24.1°
